Location: Ammerl�gen
(47.2167°N, 9.6000°E)
Time: 19:38:25
(UTC+00:00)

DMSP 5D-2 F13 DEB - Pass Details

Date: 26 October 2021
Orbit: 758 x 780 km, 98.7° (Epoch: 03 December)

Event Time Altitude Azimuth Distance (km) Brightness Sun altitude
Exits shadow 18:16:06 28° 38° (NE) 1,409 ? -21.2°
Drops below altitude 10° 18:19:18 10° 3° (N) 2,301 ? -21.8°
Sets 18:21:49 0° 354° (N) 3,230 ? -22.2°
